TimeEST,TemperatureF,Dew PointF,Humidity,Sea Level PressureIn,VisibilityMPH,Wind Direction,Wind SpeedMPH,Gust SpeedMPH,PrecipitationIn,Events,Conditions,WindDirDegrees,DateUTC
12:52 AM,19.9,14.0,78,30.20,10.0,Calm,Calm,-,N/A,,Overcast,0,2001-01-14 05:52:00
1:52 AM,19.9,15.1,81,30.20,10.0,ESE,3.5,-,N/A,,Overcast,120,2001-01-14 06:52:00
2:52 AM,21.0,15.1,78,30.20,10.0,Calm,Calm,-,N/A,,Overcast,0,2001-01-14 07:52:00
3:52 AM,21.9,17.1,82,30.19,10.0,Calm,Calm,-,N/A,,Overcast,0,2001-01-14 08:52:00
4:52 AM,21.9,18.0,85,30.19,10.0,Calm,Calm,-,N/A,,Overcast,0,2001-01-14 09:52:00
5:52 AM,23.0,19.0,85,30.19,10.0,Calm,Calm,-,N/A,,Overcast,0,2001-01-14 10:52:00
6:52 AM,24.1,19.0,81,30.20,10.0,ESE,3.5,-,N/A,,Overcast,120,2001-01-14 11:52:00
7:52 AM,25.0,19.9,81,30.21,10.0,Calm,Calm,-,N/A,,Overcast,0,2001-01-14 12:52:00
8:52 AM,30.0,26.1,85,30.21,8.0,Variable,6.9,-,N/A,,Overcast,0,2001-01-14 13:52:00
9:52 AM,30.0,26.1,85,30.21,7.0,West,6.9,-,N/A,,Overcast,280,2001-01-14 14:52:00
10:26 AM,30.2,26.6,86,30.15,9.0,West,6.9,-,N/A,,Overcast,270,2001-01-14 15:26:00
10:52 AM,30.9,26.1,82,30.21,8.0,West,10.4,-,N/A,,Overcast,280,2001-01-14 15:52:00
11:04 AM,30.2,26.6,86,30.15,6.0,West,10.4,-,N/A,,Haze,280,2001-01-14 16:04:00
11:42 AM,30.2,26.6,86,30.15,5.0,West,8.1,-,N/A,,Overcast,270,2001-01-14 16:42:00
11:52 AM,30.0,27.0,88,30.20,5.0,WNW,6.9,-,N/A,,Overcast,290,2001-01-14 16:52:00
12:52 PM,30.9,27.0,85,30.18,10.0,West,5.8,-,N/A,,Overcast,280,2001-01-14 17:52:00
1:45 PM,30.2,26.6,86,30.12,10.0,West,9.2,-,N/A,,Overcast,270,2001-01-14 18:45:00
1:52 PM,30.9,26.1,82,30.18,10.0,West,11.5,17.3,N/A,,Overcast,270,2001-01-14 18:52:00
2:24 PM,30.2,26.6,86,30.14,10.0,West,11.5,-,N/A,,Overcast,270,2001-01-14 19:24:00
2:52 PM,30.9,26.1,82,30.21,10.0,West,8.1,-,N/A,,Overcast,270,2001-01-14 19:52:00
3:52 PM,30.9,26.1,82,30.22,10.0,Variable,5.8,-,0.01,,Overcast,0,2001-01-14 20:52:00
4:17 PM,30.2,26.6,86,30.17,10.0,West,4.6,-,N/A,,Overcast,280,2001-01-14 21:17:00
4:42 PM,30.2,26.6,86,30.17,10.0,WNW,6.9,-,N/A,,Overcast,290,2001-01-14 21:42:00
4:52 PM,30.0,26.1,85,30.23,10.0,West,9.2,-,N/A,,Overcast,280,2001-01-14 21:52:00
5:18 PM,30.2,24.8,80,30.18,10.0,West,9.2,-,N/A,,Overcast,280,2001-01-14 22:18:00
5:52 PM,30.0,25.0,82,30.24,10.0,WNW,9.2,-,N/A,,Overcast,290,2001-01-14 22:52:00
6:52 PM,28.9,21.9,75,30.26,10.0,NNW,5.8,-,N/A,,Overcast,340,2001-01-14 23:52:00
7:52 PM,27.0,19.9,75,30.29,10.0,North,4.6,-,N/A,,Overcast,350,2001-01-15 00:52:00
8:52 PM,26.1,19.0,75,30.29,10.0,North,8.1,-,N/A,,Overcast,350,2001-01-15 01:52:00
9:24 PM,24.8,17.6,74,30.23,10.0,Variable,3.5,-,N/A,,Scattered Clouds,0,2001-01-15 02:24:00
9:52 PM,21.9,18.0,85,30.29,10.0,North,3.5,-,N/A,,Clear,350,2001-01-15 02:52:00
10:52 PM,17.1,14.0,88,30.31,10.0,Calm,Calm,-,N/A,,Clear,0,2001-01-15 03:52:00
11:52 PM,10.9,10.0,96,30.31,6.0,Calm,Calm,-,N/A,,Clear,0,2001-01-15 04:52:00